Change the Weather History Date:

Monday, November 19, 2012

  Actual Average Record
Temperature  
Mean Temperature 34 °F -  
Max Temperature 46 °F 36 °F 62 °F (1989)
Min Temperature 21 °F 18 °F -17 °F (1950)
Degree Days  
Heating Degree Days 32    
Moisture  
Dew Point 27 °F    
Average Humidity 76    
Maximum Humidity 93    
Minimum Humidity 62    
Precipitation  
Precipitation 0.00 in - - ()
Sea Level Pressure  
Sea Level Pressure 30.04 in    
Wind  
Wind Speed 6 mph (SSW)    
Max Wind Speed 14 mph    
Max Gust Speed -    
Visibility 10 miles    
Events      
Averages and records for this station are not official NWS values.
T = Trace of Precipitation, MM = Missing Value Source: NWS Daily Summary

Daily Weather History Graph

Daily Weather History Graph

Search for Another Location

Airport or City:

Trip Planner

Search our weather history database for the weather conditions in past years. The results will help you decide how hot, cold, wet, or windy it might be!

Date:

Astronomy

Nov. 19, 2012 Rise Set
Actual Time 7:08 AM MST 4:15 PM MST
Civil Twilight 6:34 AM MST 4:49 PM MST
Nautical Twilight 5:56 AM MST 5:27 PM MST
Astronomical Twilight 5:20 AM MST 6:03 PM MST
Moon 12:03 PM MST 10:57 PM MST
Length of Visible Light 10h 14m
Length of Day
9h 06m
Waxing Crescent, 41% of the Moon is Illuminated
Nov 19
Waxing Crescent
Nov 20
First Quarter
Nov 28
Full
Dec 6
Last Quarter
Dec 13
New

Hourly Weather History & Observations

Time (MST) Temp. Windchill Dew Point Humidity Pressure Visibility Wind Dir Wind Speed Gust Speed Precip Events Conditions
12:15 AM 35.6 °F 26.6 °F 28.4 °F 75% 30.02 in 10.0 mi WNW 13.8 mph - N/A   Mostly Cloudy
12:35 AM 35.6 °F 27.1 °F 26.6 °F 70% 30.01 in 10.0 mi WNW 12.7 mph - N/A   Mostly Cloudy
12:55 AM 33.8 °F 26.4 °F 26.6 °F 75% 30.03 in 10.0 mi West 9.2 mph - N/A   Scattered Clouds
1:15 AM 33.8 °F - 26.6 °F 75% 30.03 in 10.0 mi Calm Calm - N/A   Partly Cloudy
1:35 AM 33.8 °F - 24.8 °F 70% 30.04 in 10.0 mi Calm Calm - N/A   Partly Cloudy
1:55 AM 33.8 °F 30.8 °F 26.6 °F 75% 30.04 in 10.0 mi South 3.5 mph - N/A   Partly Cloudy
2:35 AM 30.2 °F 23.4 °F 26.6 °F 86% 30.05 in 10.0 mi SSW 6.9 mph - N/A   Clear
2:55 AM 30.2 °F 25.4 °F 24.8 °F 80% 30.06 in 10.0 mi WSW 4.6 mph - N/A   Clear
3:15 AM 30.2 °F - 24.8 °F 80% 30.06 in 10.0 mi Calm Calm - N/A   Clear
3:35 AM 30.2 °F 23.4 °F 24.8 °F 80% 30.05 in 10.0 mi SW 6.9 mph - N/A   Clear
3:55 AM 28.4 °F - 23.0 °F 80% 30.06 in 10.0 mi Calm Calm - N/A   Clear
4:15 AM 28.4 °F - 21.2 °F 74% 30.06 in 10.0 mi Calm Calm - N/A   Clear
4:35 AM 26.6 °F 21.2 °F 21.2 °F 80% 30.07 in 10.0 mi SW 4.6 mph - N/A   Clear
4:55 AM 24.8 °F 20.5 °F 21.2 °F 86% 30.07 in 10.0 mi SSW 3.5 mph - N/A   Clear
5:15 AM 23.0 °F 15.8 °F 19.4 °F 86% 30.08 in 10.0 mi SSW 5.8 mph - N/A   Clear
5:35 AM 24.8 °F - 21.2 °F 86% 30.08 in 10.0 mi Calm Calm - N/A   Clear
5:55 AM 23.0 °F 17.0 °F 19.4 °F 86% 30.08 in 10.0 mi South 4.6 mph - N/A   Clear
6:35 AM 21.2 °F 13.6 °F 17.6 °F 86% 30.09 in 10.0 mi SSW 5.8 mph - N/A   Clear
6:55 AM 23.0 °F 14.7 °F 21.2 °F 93% 30.09 in 10.0 mi SSW 6.9 mph - N/A   Clear
7:15 AM 24.8 °F - 21.2 °F 86% 30.10 in 10.0 mi Calm Calm - N/A   Clear
7:35 AM 23.0 °F - 19.4 °F 86% 30.10 in 10.0 mi Calm Calm - N/A   Clear
8:15 AM 24.8 °F 16.9 °F 21.2 °F 86% 30.10 in 10.0 mi SSW 6.9 mph - N/A   Clear
8:35 AM 26.6 °F 17.5 °F 23.0 °F 86% 30.11 in 10.0 mi SSW 9.2 mph - N/A   Clear
8:55 AM 28.4 °F 19.7 °F 24.8 °F 86% 30.11 in 10.0 mi South 9.2 mph - N/A   Clear
9:15 AM 28.4 °F 19.7 °F 24.8 °F 86% 30.11 in 10.0 mi South 9.2 mph - N/A   Clear
9:35 AM 30.2 °F 21.9 °F 26.6 °F 86% 30.11 in 10.0 mi SSW 9.2 mph - N/A   Clear
9:55 AM 32.0 °F 24.2 °F 26.6 °F 80% 30.10 in 10.0 mi SSW 9.2 mph - N/A   Clear
10:15 AM 33.8 °F 27.7 °F 28.4 °F 81% 30.11 in 10.0 mi South 6.9 mph - N/A   Clear
10:35 AM 35.6 °F 29.9 °F 28.4 °F 75% 30.10 in 10.0 mi South 6.9 mph - N/A   Clear
10:55 AM 37.4 °F 29.8 °F 30.2 °F 75% 30.09 in 10.0 mi SSW 11.5 mph - N/A   Clear
11:15 AM 39.2 °F 32.5 °F 30.2 °F 70% 30.08 in 10.0 mi SSW 10.4 mph - N/A   Clear
11:35 AM 39.2 °F 33.6 °F 30.2 °F 70% 30.08 in 10.0 mi SSW 8.1 mph - N/A   Clear
11:55 AM 41.0 °F 35.8 °F 32.0 °F 70% 30.08 in 10.0 mi SSW 8.1 mph - N/A   Clear
12:15 PM 42.8 °F 37.0 °F 32.0 °F 66% 30.08 in 10.0 mi SSW 10.4 mph - N/A   Clear
12:35 PM 42.8 °F 36.2 °F 32.0 °F 66% 30.07 in 10.0 mi SSW 12.7 mph - N/A   Clear
1:15 PM 42.8 °F 40.1 °F 33.8 °F 70% 30.06 in 10.0 mi SSW 4.6 mph - N/A   Clear
1:35 PM 44.6 °F 41.4 °F 33.8 °F 66% 30.04 in 9.0 mi South 5.8 mph - N/A   Clear
1:55 PM 44.6 °F 43.1 °F 33.8 °F 66% 30.04 in 10.0 mi South 3.5 mph - N/A   Clear
2:15 PM 46.4 °F - 33.8 °F 62% 30.04 in 10.0 mi Calm Calm - N/A   Clear
2:35 PM 44.6 °F - 33.8 °F 66% 30.03 in 10.0 mi Calm Calm - N/A   Clear
2:55 PM 42.8 °F 41.1 °F 33.8 °F 70% 30.03 in 10.0 mi South 3.5 mph - N/A   Clear
3:35 PM 41.0 °F 38.0 °F 33.8 °F 76% 30.03 in 10.0 mi SW 4.6 mph - N/A   Clear
3:55 PM 42.8 °F 41.1 °F 32.0 °F 66% 30.03 in 10.0 mi SSW 3.5 mph - N/A   Clear
4:15 PM 42.8 °F 41.1 °F 32.0 °F 66% 30.03 in 10.0 mi SSW 3.5 mph - N/A   Clear
4:35 PM 41.0 °F 39.0 °F 30.2 °F 65% 30.03 in 10.0 mi South 3.5 mph - N/A   Clear
4:55 PM 39.2 °F - 30.2 °F 70% 30.03 in 10.0 mi Calm Calm - N/A   Clear
5:15 PM 39.2 °F 35.9 °F 30.2 °F 70% 30.02 in 10.0 mi South 4.6 mph - N/A   Clear
5:35 PM 39.2 °F 35.0 °F 30.2 °F 70% 30.01 in 10.0 mi South 5.8 mph - N/A   Clear
5:55 PM 37.4 °F 34.9 °F 30.2 °F 75% 30.01 in 10.0 mi South 3.5 mph - N/A   Clear
6:15 PM 37.4 °F - 28.4 °F 70% 30.01 in 10.0 mi Calm Calm - N/A   Clear
6:35 PM 35.6 °F 32.8 °F 26.6 °F 70% 30.00 in 10.0 mi South 3.5 mph - N/A   Clear
6:55 PM 37.4 °F - 28.4 °F 70% 30.00 in 10.0 mi Calm Calm - N/A   Clear
7:35 PM 37.4 °F 32.8 °F 28.4 °F 70% 30.00 in 10.0 mi SSE 5.8 mph - N/A   Clear
7:55 PM 35.6 °F 31.7 °F 26.6 °F 70% 30.00 in 10.0 mi South 4.6 mph - N/A   Clear
8:15 PM 33.8 °F 28.6 °F 24.8 °F 70% 29.99 in 10.0 mi South 5.8 mph - N/A   Clear
8:35 PM 33.8 °F 29.6 °F 26.6 °F 75% 29.99 in 10.0 mi South 4.6 mph - N/A   Clear
8:55 PM 33.8 °F 30.8 °F 26.6 °F 75% 29.98 in 10.0 mi South 3.5 mph - N/A   Clear
9:15 PM 32.0 °F 27.5 °F 24.8 °F 75% 29.97 in 10.0 mi SE 4.6 mph - N/A   Clear
9:35 PM 30.2 °F 25.4 °F 24.8 °F 80% 29.96 in 10.0 mi South 4.6 mph - N/A   Clear
9:55 PM 30.2 °F 26.7 °F 24.8 °F 80% 29.96 in 10.0 mi SSE 3.5 mph - N/A   Clear
10:15 PM 30.2 °F 25.4 °F 24.8 °F 80% 29.96 in 10.0 mi SSW 4.6 mph - N/A   Clear
10:35 PM 30.2 °F 21.9 °F 24.8 °F 80% 29.95 in 10.0 mi SSW 9.2 mph - N/A   Clear
10:55 PM 32.0 °F 24.8 °F 26.6 °F 80% 29.95 in 10.0 mi SSW 8.1 mph - N/A   Clear
11:15 PM 33.8 °F 25.8 °F 26.6 °F 75% 29.95 in 10.0 mi SSW 10.4 mph - N/A   Clear
11:35 PM 33.8 °F 26.4 °F 24.8 °F 70% 29.94 in 10.0 mi SSW 9.2 mph - N/A   Clear
11:55 PM 33.8 °F 25.8 °F 24.8 °F 70% 29.94 in 10.0 mi SSW 10.4 mph - N/A   Clear